Flag for Norway Weather past 2 weeks in Brumunddal, Norway

Now
51 °F

Cool.


Feels Like: 51 °F
Forecast: 42 / 68 °F
Wind: 1 mph from Southwest

Location: Lillehammer-Saetherengen

Current Time: Aug 28, 2015 at 10:28:10 AM

Latest Report: Aug 28, 2015 at 9:00 AM


Visibility: N/A

Pressure: 29.56 "Hg

Humidity: 94%

Dew point: 49 °F

Location of BrumunddalLocation

Historic Weather in Brumunddal — Graph

°F

Brumunddal temperature yesterday

Maximum temperature yesterday: 62 °F (at 2:00 PM)
Minimum temperature yesterday: 53 °F (at 11:00 PM)
Average temperature yesterday: 58 °F

Past Weeks' High & Low Weather Summary

 TemperatureHumidityPressure
High74 °F (Aug 23, 5:00 PM)96% (Aug 25, 8:00 AM)30.38 "Hg (Aug 25, 8:00 AM)
Low45 °F (Aug 22, 6:00 AM)29% (Aug 19, 6:00 PM)29.44 "Hg (Aug 27, 6:00 PM)
Average60 °F70%30.08 "Hg
* Reported Aug 13 9:00 AM — Aug 28 9:00 AM, Brumunddal, Weather by CustomWeather, © 2015

Note: Actual official high and low records may vary slightly from our data, if they occured in-between our weather recording intervals... More about our weather records

Advertising

Brumunddal weather history for previous 24 hours

 ConditionsComfort  
Time TempWeatherWind HumidityBarometerVisibility
9:00 AM
Fri, Aug 28
51 °FCool.1 mph94%29.56 "HgN/A
8:00 AM46 °FCool.1 mph96%29.56 "HgN/A
7:00 AM46 °FCool.1 mph94%29.55 "HgN/A
5:00 AM48 °FCool.No wind92%29.50 "HgN/A
4:00 AM49 °FCool.2 mph92%29.50 "HgN/A
3:00 AM51 °FCool.2 mph93%29.47 "HgN/A
2:00 AM52 °FCool.3 mph93%29.47 "HgN/A
1:00 AM52 °FCool.2 mph94%29.47 "HgN/A
11:00 PM
Thu, Aug 27
53 °FCool.2 mph93%29.44 "HgN/A
10:00 PM53 °FCool.2 mph92%29.44 "HgN/A
9:00 PM55 °FCool.2 mph92%29.44 "HgN/A
8:00 PM57 °FCool.1 mph90%29.44 "HgN/A
7:00 PM58 °FCool.1 mph84%29.44 "HgN/A
6:00 PM60 °FCool.3 mph82%29.44 "HgN/A
5:00 PM61 °FCool.3 mph83%29.47 "HgN/A
4:00 PM58 °FCool.2 mph88%29.47 "HgN/A
3:00 PM60 °FCool.3 mph84%29.47 "HgN/A
2:00 PM62 °FCool.3 mph82%29.50 "HgN/A
1:00 PM60 °FCool.3 mph86%29.50 "HgN/A
12:00 PM60 °FCool.3 mph87%29.50 "HgN/A
11:00 AM60 °FCool.3 mph92%29.50 "HgN/A
10:00 AM57 °FCool.2 mph94%29.50 "HgN/A
Weather by CustomWeather, © 2015

See weather overviewHow to use our weather pages